Погода в Закобякино

Россия / Ярославская область     58°06′15″N   40°43′30″E
темп.,
°C
ветер,
м/с
пор.,
м/с
влажн.,
%
обл.,
%
осадки,
мм/ч
давл.,
гПа
погр.,
м
24 сентября, пт
пт2400:00+10юв41086100 0.0 1010542
03:00+9юв4996100 0.6 1008601
06:00+8юв4997100 1.8 1007540
09:00+9ююв4895100 2.1 1007543
12:00+10ююв489084 0.3 1008646
15:00+12ю587147 1.1 10071274
18:00+9юв388496 0.3 1008215
21:00+7юв389539 0.3 1009198
25 сентября, сб
сб2500:00+6юв269637 0.0 1009122
03:00+5юв259574 0.0 1009107
06:00+6юв2792100 0.0 1009215
09:00+8юв2887100 0.0 1009329
12:00+13ю366318 0.1 10091224
15:00+12ююв2658100 0.2 1008274
18:00+11ююв3872100 0.1 1008228
21:00+9ююв2883100 0.3 1008236
26 сентября, вс
вс2600:00+9юв2885100 0.2 1007243
03:00+9юв3983100 0.3 1007281
06:00+8юв2784100 0.0 1008269
09:00+9вюв2588100 0.0 1008284
12:00+10в2688100 0.2 1010412
15:00+12всв2376100 0.6 1012516
18:00+10ссв269095 1.1 1013158
21:00+8ссв268897 1.2 1016155
27 сентября, пн
пн2700:00+8с3888100 0.0 1017325
03:00+8с4990100 0.0 1018522
06:00+8с41092100 0.0 1020589
09:00+8с4991100 0.2 10211070
12:00+9ссв4991100 0.1 1022687
15:00+9ссв4989100 0.3 1024681
18:00+8ссв4890100 0.1 1026726
21:00+8св3892100 0.1 1027590
28 сентября, вт
вт2800:00+7ссв3693100 0.0 1028417
03:00+7ссв2693100 0.0 1029389
06:00+7с3694100 0.0 1030363
09:00+7ссв2790100 0.0 1031467
12:00+9ссв357899 0.0 1032781
15:00+10ссв3566100 0.0 10311140
18:00+9с2575100 0.0 1032144
21:00+7с2487100 0.0 103298